Location: The Saddle
(36.8333°N, 80.3417°W)
Time: 08:25:19
(UTC-05:00)

Vanguard 2 Rocket - Pass Details

Date: 18 December 2023
Orbit: 555 x 3309 km, 32.9° (Epoch: 02 March)

Event Time Altitude Azimuth Distance (km) Brightness Sun altitude
Rises 10:03:37 0° 223° (SW) 3,768 10.2 22.0°
Reaches altitude 10° 10:05:58 10° 215° (SW) 3,081 10.0 22.2°
Maximum altitude 10:13:19 42° 147° (SSE) 2,238 10.6 23.0°
Drops below altitude 10° 10:25:46 10° 83° (E) 5,161 11.1 24.2°
Sets 10:30:59 0° 78° (ENE) 6,576 11.5 24.7°
